| time (UTC) | temp F | wind direction | speed MPH | gust MPH | rain 1hr in | rain 24hr in | rain mn in | humidity % | barometer mb |
| 20260902112905 | 73 | 68 | 7.0 | 14.0 | 0.00 | 0.00 | 0.00 | 78 | 1023.4 |
| 20260902112405 | 73 | 65 | 10.0 | 14.0 | 0.00 | 0.00 | 0.00 | 80 | 1023.5 |
| 20260902111905 | 72 | 73 | 7.0 | 12.0 | 0.00 | 0.00 | 0.00 | 82 | 1023.5 |
| 20260902111405 | 72 | 88 | 5.0 | 10.0 | 0.00 | 0.00 | 0.00 | 82 | 1023.6 |
| 20260902110905 | 72 | 96 | 9.0 | 15.0 | 0.00 | 0.00 | 0.00 | 80 | 1023.6 |
| 20260902110405 | 73 | 88 | 9.0 | 18.0 | 0.00 | 0.00 | 0.00 | 78 | 1023.7 |
| 20260902105904 | 73 | 85 | 10.0 | 20.0 | 0.00 | 0.00 | 0.00 | 76 | 1023.7 |
| 20260902105404 | 74 | 82 | 10.0 | 26.0 | 0.00 | 0.00 | 0.00 | 76 | 1023.7 |
| 20260902104905 | 74 | 67 | 11.0 | 23.0 | 0.00 | 0.00 | 0.00 | 77 | 1023.6 |
| 20260902103905 | 74 | 74 | 10.0 | 20.0 | 0.00 | 0.00 | 0.00 | 78 | 1023.6 |
| 20260902103405 | 75 | 69 | 12.0 | 20.0 | 0.00 | 0.00 | 0.00 | 78 | 1023.6 |
| 20260902102905 | 75 | 96 | 9.0 | 23.0 | 0.00 | 0.00 | 0.00 | 76 | 1023.6 |
| 20260902101405 | 75 | 104 | 11.0 | 20.0 | 0.00 | 0.00 | 0.00 | 77 | 1023.8 |
| 20260902100904 | 76 | 100 | 10.0 | 20.0 | 0.00 | 0.00 | 0.00 | 76 | 1023.9 |
| 20260902100404 | 76 | 92 | 12.0 | 23.0 | 0.00 | 0.00 | 0.00 | 76 | 1023.8 |
| 20260902095905 | 76 | 77 | 7.0 | 18.0 | 0.00 | 0.00 | 0.00 | 77 | 1023.9 |
| 20260902095405 | 77 | 116 | 11.0 | 20.0 | 0.00 | 0.00 | 0.00 | 75 | 1023.9 |
| 20260902094904 | 77 | 93 | 9.0 | 20.0 | 0.00 | 0.00 | 0.00 | 74 | 1024.0 |
| 20260902094404 | 77 | 106 | 10.0 | 25.0 | 0.00 | 0.00 | 0.00 | 72 | 1023.9 |
| 20260902093905 | 78 | 80 | 10.0 | 20.0 | 0.00 | 0.00 | 0.00 | 70 | 1023.9 |
| 20260902092904 | 78 | 84 | 8.0 | 14.0 | 0.00 | 0.00 | 0.00 | 71 | 1023.9 |
| 20260902092405 | 77 | 86 | 10.0 | 20.0 | 0.00 | 0.00 | 0.00 | 72 | 1023.9 |
| 20260902091905 | 77 | 82 | 9.0 | 15.0 | 0.00 | 0.00 | 0.00 | 72 | 1023.9 |
| 20260902091405 | 77 | 106 | 9.0 | 20.0 | 0.00 | 0.00 | 0.00 | 73 | 1024.0 |
| 20260902090904 | 77 | 82 | 9.0 | 16.0 | 0.00 | 0.00 | 0.00 | 73 | 1023.9 |
| 20260902090406 | 76 | 92 | 11.0 | 22.0 | 0.00 | 0.00 | 0.00 | 75 | 1024.0 |
| 20260902085905 | 77 | 103 | 10.0 | 20.0 | 0.00 | 0.00 | 0.00 | 75 | 1024.0 |
| 20260902085405 | 77 | 92 | 9.0 | 18.0 | 0.00 | 0.00 | 0.00 | 76 | 1024.0 |
| 20260902084904 | 76 | 111 | 11.0 | 20.0 | 0.00 | 0.00 | 0.00 | 76 | 1024.1 |
| 20260902084405 | 77 | 87 | 7.0 | 14.0 | 0.00 | 0.00 | 0.00 | 76 | 1024.2 |
| 20260902083905 | 77 | 110 | 9.0 | 14.0 | 0.00 | 0.00 | 0.00 | 75 | 1024.2 |
| 20260902082905 | 78 | 104 | 9.0 | 17.0 | 0.00 | 0.00 | 0.00 | 71 | 1024.2 |
| 20260902082404 | 78 | 93 | 8.0 | 16.0 | 0.00 | 0.00 | 0.00 | 67 | 1024.2 |
| 20260902081904 | 79 | 99 | 4.0 | 14.0 | 0.00 | 0.00 | 0.00 | 65 | 1024.1 |
| 20260902081405 | 78 | 80 | 6.0 | 12.0 | 0.00 | 0.00 | 0.00 | 63 | 1024.1 |
| 20260902080404 | 78 | 74 | 7.0 | 14.0 | 0.00 | 0.00 | 0.00 | 64 | 1024.2 |
| 20260902075905 | 78 | 102 | 7.0 | 17.0 | 0.00 | 0.00 | 0.00 | 67 | 1024.3 |
| 20260902075405 | 78 | 89 | 10.0 | 16.0 | 0.00 | 0.00 | 0.00 | 67 | 1024.5 |
| 20260902074905 | 78 | 145 | 9.0 | 16.0 | 0.00 | 0.00 | 0.00 | 67 | 1024.6 |
| 20260902074404 | 78 | 119 | 10.0 | 18.0 | 0.00 | 0.00 | 0.00 | 68 | 1024.7 |
| 20260902073905 | 78 | 142 | 11.0 | 20.0 | 0.00 | 0.00 | 0.00 | 66 | 1024.7 |
| 20260902073405 | 78 | 76 | 10.0 | 18.0 | 0.00 | 0.00 | 0.00 | 66 | 1024.8 |
| 20260902072904 | 78 | 95 | 7.0 | 17.0 | 0.00 | 0.00 | 0.00 | 67 | 1024.8 |
| 20260902072405 | 78 | 129 | 9.0 | 17.0 | 0.00 | 0.00 | 0.00 | 65 | 1024.9 |
| 20260902071905 | 78 | 112 | 11.0 | 18.0 | 0.00 | 0.00 | 0.00 | 64 | 1025.0 |
| 20260902070905 | 78 | 72 | 6.0 | 14.0 | 0.00 | 0.00 | 0.00 | 69 | 1025.0 |
| 20260902070405 | 78 | 128 | 9.0 | 17.0 | 0.00 | 0.00 | 0.00 | 67 | 1025.1 |
| 20260902065905 | 78 | 97 | 9.0 | 20.0 | 0.00 | 0.00 | 0.00 | 66 | 1025.4 |
| 20260902065405 | 78 | 75 | 9.0 | 17.0 | 0.00 | 0.00 | 0.00 | 66 | 1025.4 |
| 20260902064904 | 77 | 88 | 9.0 | 16.0 | 0.00 | 0.00 | 0.00 | 67 | 1025.5 |
| 20260902064405 | 77 | 85 | 9.0 | 17.0 | 0.00 | 0.00 | 0.00 | 66 | 1025.6 |
| 20260902063904 | 78 | 65 | 7.0 | 15.0 | 0.00 | 0.00 | 0.00 | 66 | 1025.6 |
| 20260902063405 | 78 | 68 | 7.0 | 15.0 | 0.00 | 0.00 | 0.00 | 66 | 1025.6 |
| 20260902062904 | 77 | 98 | 7.0 | 16.0 | 0.00 | 0.00 | 0.00 | 69 | 1025.6 |
| 20260902062405 | 77 | 76 | 9.0 | 16.0 | 0.00 | 0.00 | 0.00 | 67 | 1025.6 |
| 20260902061905 | 77 | 98 | 9.0 | 20.0 | 0.00 | 0.00 | 0.00 | 68 | 1025.6 |
| 20260902061405 | 77 | 75 | 7.0 | 16.0 | 0.00 | 0.00 | 0.00 | 70 | 1025.6 |
| 20260902060904 | 76 | 140 | 11.0 | 17.0 | 0.00 | 0.00 | 0.00 | 70 | 1025.7 |
| 20260902055905 | 76 | 91 | 6.0 | 17.0 | 0.00 | 0.00 | 0.00 | 73 | 1025.7 |
| 20260902054404 | 76 | 100 | 11.0 | 17.0 | 0.00 | 0.00 | 0.00 | 74 | 1025.6 |
| 20260902053904 | 76 | 102 | 9.0 | 18.0 | 0.00 | 0.00 | 0.00 | 74 | 1025.7 |
| 20260902053405 | 76 | 117 | 5.0 | 15.0 | 0.00 | 0.00 | 0.00 | 75 | 1025.6 |
| 20260902051904 | 76 | 123 | 7.0 | 15.0 | 0.00 | 0.00 | 0.00 | 73 | 1025.6 |
| 20260902051404 | 76 | 126 | 9.0 | 18.0 | 0.00 | 0.00 | 0.00 | 74 | 1025.5 |
| 20260902050905 | 75 | 101 | 5.0 | 14.0 | 0.00 | 0.00 | 0.00 | 76 | 1025.5 |
| 20260902050404 | 75 | 88 | 5.0 | 13.0 | 0.00 | 0.00 | 0.00 | 76 | 1025.5 |
| 20260902045904 | 75 | 114 | 9.0 | 15.0 | 0.00 | 0.00 | 0.00 | 77 | 1025.5 |
| 20260902045404 | 74 | 151 | 4.0 | 12.0 | 0.00 | 0.00 | 0.00 | 77 | 1025.5 |
| 20260902044904 | 74 | 113 | 6.0 | 12.0 | 0.00 | 0.00 | 0.00 | 76 | 1025.4 |
| 20260902044405 | 74 | 99 | 6.0 | 12.0 | 0.00 | 0.00 | 0.00 | 76 | 1025.4 |
| 20260902043904 | 74 | 71 | 5.0 | 12.0 | 0.00 | 0.00 | 0.00 | 75 | 1025.4 |
| 20260902043404 | 73 | 84 | 9.0 | 16.0 | 0.00 | 0.00 | 0.00 | 75 | 1025.4 |
| 20260902042904 | 73 | 88 | 4.0 | 12.0 | 0.00 | 0.00 | 0.00 | 77 | 1025.3 |
| 20260902042405 | 73 | 114 | 3.0 | 12.0 | 0.00 | 0.00 | 0.00 | 78 | 1025.4 |
| 20260902041905 | 72 | 100 | 4.0 | 10.0 | 0.00 | 0.00 | 0.00 | 78 | 1025.4 |
| 20260902041404 | 72 | 103 | 6.0 | 10.0 | 0.00 | 0.00 | 0.00 | 78 | 1025.4 |
| 20260902040904 | 73 | 117 | 6.0 | 15.0 | 0.00 | 0.00 | 0.00 | 78 | 1025.4 |
| 20260902040404 | 73 | 116 | 7.0 | 15.0 | 0.00 | 0.00 | 0.00 | 75 | 1025.3 |
| 20260902035904 | 73 | 97 | 5.0 | 10.0 | 0.00 | 0.00 | 0.00 | 75 | 1025.1 |
| 20260902034905 | 73 | 96 | 4.0 | 10.0 | 0.00 | 0.00 | 0.00 | 75 | 1025.0 |
| 20260902034405 | 73 | 91 | 7.0 | 12.0 | 0.00 | 0.00 | 0.00 | 75 | 1024.9 |
| 20260902033405 | 73 | 112 | 5.0 | 10.0 | 0.00 | 0.00 | 0.00 | 76 | 1024.8 |
| 20260902032905 | 73 | 88 | 6.0 | 12.0 | 0.00 | 0.00 | 0.00 | 75 | 1024.8 |
| 20260902032405 | 74 | 84 | 6.0 | 13.0 | 0.00 | 0.00 | 0.00 | 74 | 1024.7 |
| 20260902031904 | 74 | 78 | 5.0 | 13.0 | 0.00 | 0.00 | 0.00 | 74 | 1024.6 |
| 20260902031404 | 73 | 81 | 7.0 | 13.0 | 0.00 | 0.00 | 0.00 | 73 | 1024.6 |
| 20260902030905 | 73 | 80 | 6.0 | 15.0 | 0.00 | 0.00 | 0.00 | 74 | 1024.6 |
| 20260902030404 | 73 | 94 | 5.0 | 12.0 | 0.00 | 0.00 | 0.00 | 75 | 1024.7 |
| 20260902025905 | 73 | 88 | 6.0 | 16.0 | 0.00 | 0.00 | 0.00 | 75 | 1024.7 |
| 20260902025404 | 73 | 82 | 5.0 | 9.0 | 0.00 | 0.00 | 0.00 | 76 | 1024.5 |
| 20260902024905 | 72 | 73 | 5.0 | 12.0 | 0.00 | 0.00 | 0.00 | 76 | 1024.5 |
| 20260902024405 | 72 | 101 | 5.0 | 12.0 | 0.00 | 0.00 | 0.00 | 76 | 1024.5 |
| 20260902023904 | 72 | 90 | 3.0 | 12.0 | 0.00 | 0.00 | 0.00 | 77 | 1024.5 |
| 20260902022904 | 72 | 82 | 5.0 | 10.0 | 0.00 | 0.00 | 0.00 | 77 | 1024.4 |
| 20260902022404 | 72 | 102 | 4.0 | 12.0 | 0.00 | 0.00 | 0.00 | 77 | 1024.4 |
| 20260902021904 | 72 | 97 | 4.0 | 10.0 | 0.00 | 0.00 | 0.00 | 77 | 1024.3 |
| 20260902021404 | 72 | 72 | 5.0 | 12.0 | 0.00 | 0.00 | 0.00 | 76 | 1024.3 |
| 20260902020404 | 72 | 87 | 4.0 | 12.0 | 0.00 | 0.00 | 0.00 | 76 | 1024.2 |
| 20260902015905 | 72 | 91 | 3.0 | 12.0 | 0.00 | 0.00 | 0.00 | 77 | 1024.2 |
| 20260902015405 | 72 | 86 | 4.0 | 12.0 | 0.00 | 0.00 | 0.00 | 77 | 1024.1 |
| 20260902014904 | 72 | 98 | 5.0 | 12.0 | 0.00 | 0.00 | 0.00 | 78 | 1024.1 |
| 20260902013404 | 72 | 92 | 7.0 | 13.0 | 0.00 | 0.00 | 0.00 | 77 | 1024.1 |
| 20260902012905 | 72 | 102 | 5.0 | 13.0 | 0.00 | 0.00 | 0.00 | 76 | 1024.0 |
| 20260902012405 | 72 | 89 | 6.0 | 14.0 | 0.00 | 0.00 | 0.00 | 74 | 1024.0 |
| 20260902011905 | 73 | 90 | 3.0 | 10.0 | 0.00 | 0.00 | 0.00 | 73 | 1024.0 |
| 20260902011404 | 73 | 97 | 5.0 | 9.0 | 0.00 | 0.00 | 0.00 | 70 | 1024.0 |
| 20260902010904 | 73 | 90 | 5.0 | 12.0 | 0.00 | 0.00 | 0.00 | 65 | 1024.0 |
| 20260902010405 | 73 | 84 | 6.0 | 10.0 | 0.00 | 0.00 | 0.00 | 63 | 1024.0 |
| 20260902005905 | 72 | 106 | 7.0 | 13.0 | 0.00 | 0.00 | 0.00 | 66 | 1023.9 |
| 20260902005405 | 72 | 88 | 9.0 | 18.0 | 0.00 | 0.00 | 0.00 | 67 | 1024.0 |
| 20260902004904 | 72 | 60 | 8.0 | 20.0 | 0.00 | 0.00 | 0.00 | 70 | 1023.9 |
| 20260902004404 | 72 | 69 | 5.0 | 10.0 | 0.00 | 0.00 | 0.00 | 72 | 1024.2 |
| 20260902003405 | 71 | 75 | 5.0 | 10.0 | 0.00 | 0.00 | 0.00 | 75 | 1024.1 |
| 20260902002904 | 71 | 101 | 4.0 | 10.0 | 0.00 | 0.00 | 0.00 | 76 | 1024.1 |
| 20260902002404 | 71 | 88 | 6.0 | 12.0 | 0.00 | 0.00 | 0.00 | 76 | 1024.2 |
| 20260902000905 | 71 | 102 | 4.0 | 14.0 | 0.00 | 0.00 | 0.00 | 75 | 1024.2 |
| 20260902000406 | 71 | 96 | 4.0 | 12.0 | 0.00 | 0.00 | 0.00 | 75 | 1024.2 |
| 20260901235905 | 71 | 93 | 6.0 | 13.0 | 0.00 | 0.00 | 0.00 | 76 | 1024.2 |
| 20260901235405 | 71 | 78 | 5.0 | 12.0 | 0.00 | 0.00 | 0.00 | 77 | 1024.1 |
| 20260901234904 | 72 | 81 | 7.0 | 16.0 | 0.00 | 0.00 | 0.00 | 77 | 1024.1 |
| 20260901233904 | 72 | 111 | 6.0 | 13.0 | 0.00 | 0.00 | 0.00 | 78 | 1024.1 |
| 20260901232905 | 72 | 100 | 3.0 | 8.0 | 0.00 | 0.00 | 0.00 | 77 | 1024.0 |
| 20260901232404 | 72 | 103 | 5.0 | 10.0 | 0.00 | 0.00 | 0.00 | 77 | 1024.0 |
| 20260901231904 | 72 | 109 | 3.0 | 9.0 | 0.00 | 0.00 | 0.00 | 76 | 1024.0 |
| 20260901231404 | 72 | 82 | 2.0 | 10.0 | 0.00 | 0.00 | 0.00 | 76 | 1024.1 |
| 20260901230905 | 72 | 80 | 5.0 | 13.0 | 0.00 | 0.00 | 0.00 | 76 | 1024.1 |
| 20260901230405 | 72 | 112 | 5.0 | 10.0 | 0.00 | 0.00 | 0.00 | 77 | 1024.1 |
| 20260901225905 | 72 | 105 | 5.0 | 10.0 | 0.00 | 0.00 | 0.00 | 77 | 1024.1 |
| 20260901225405 | 72 | 131 | 2.0 | 9.0 | 0.00 | 0.00 | 0.00 | 77 | 1024.1 |
| 20260901224905 | 72 | 100 | 5.0 | 10.0 | 0.00 | 0.00 | 0.00 | 77 | 1024.0 |
| 20260901224405 | 72 | 104 | 3.0 | 8.0 | 0.00 | 0.00 | 0.00 | 77 | 1024.2 |
| 20260901223905 | 72 | 110 | 5.0 | 10.0 | 0.00 | 0.00 | 0.00 | 77 | 1024.2 |
| 20260901223405 | 72 | 107 | 4.0 | 9.0 | 0.00 | 0.00 | 0.00 | 77 | 1024.3 |
| 20260901222904 | 72 | 112 | 3.0 | 8.0 | 0.00 | 0.00 | 0.00 | 77 | 1024.3 |
| 20260901222405 | 72 | 106 | 3.0 | 8.0 | 0.00 | 0.00 | 0.00 | 77 | 1024.4 |
| 20260901221405 | 72 | 97 | 5.0 | 9.0 | 0.00 | 0.00 | 0.00 | 76 | 1024.5 |
| 20260901220905 | 72 | 107 | 5.0 | 13.0 | 0.00 | 0.00 | 0.00 | 76 | 1024.5 |
| 20260901220405 | 72 | 114 | 3.0 | 14.0 | 0.00 | 0.00 | 0.00 | 76 | 1024.5 |
| 20260901215904 | 72 | 109 | 3.0 | 12.0 | 0.00 | 0.00 | 0.00 | 76 | 1024.5 |
| 20260901214904 | 72 | 102 | 3.0 | 10.0 | 0.00 | 0.00 | 0.00 | 76 | 1024.6 |
| 20260901214405 | 72 | 94 | 3.0 | 12.0 | 0.00 | 0.00 | 0.00 | 76 | 1024.7 |
| 20260901213905 | 72 | 83 | 6.0 | 12.0 | 0.00 | 0.00 | 0.00 | 76 | 1024.8 |
| 20260901213405 | 72 | 75 | 4.0 | 12.0 | 0.00 | 0.00 | 0.00 | 76 | 1024.8 |
| 20260901212904 | 72 | 103 | 4.0 | 8.0 | 0.00 | 0.00 | 0.00 | 76 | 1025.0 |
| 20260901212404 | 72 | 97 | 4.0 | 8.0 | 0.00 | 0.00 | 0.00 | 76 | 1025.0 |
| 20260901211905 | 72 | 65 | 3.0 | 10.0 | 0.00 | 0.00 | 0.00 | 76 | 1025.0 |
| 20260901211405 | 72 | 78 | 5.0 | 10.0 | 0.00 | 0.00 | 0.00 | 76 | 1025.0 |
| 20260901210905 | 72 | 93 | 6.0 | 12.0 | 0.00 | 0.00 | 0.00 | 76 | 1025.1 |
| 20260901205904 | 72 | 99 | 4.0 | 10.0 | 0.00 | 0.00 | 0.00 | 75 | 1025.2 |
| 20260901205404 | 72 | 97 | 6.0 | 12.0 | 0.00 | 0.00 | 0.00 | 76 | 1025.3 |
| 20260901204905 | 72 | 109 | 6.0 | 12.0 | 0.00 | 0.00 | 0.00 | 76 | 1025.4 |
| 20260901204404 | 72 | 95 | 6.0 | 12.0 | 0.00 | 0.00 | 0.00 | 76 | 1025.4 |
| 20260901203904 | 72 | 94 | 2.0 | 12.0 | 0.00 | 0.00 | 0.00 | 76 | 1025.4 |
| 20260901203404 | 72 | 96 | 3.0 | 9.0 | 0.00 | 0.00 | 0.00 | 76 | 1025.4 |
| 20260901202904 | 72 | 107 | 3.0 | 8.0 | 0.00 | 0.00 | 0.00 | 76 | 1025.3 |
| 20260901202404 | 72 | 89 | 4.0 | 9.0 | 0.00 | 0.00 | 0.00 | 75 | 1025.4 |
| 20260901201905 | 73 | 82 | 6.0 | 12.0 | 0.00 | 0.00 | 0.00 | 75 | 1025.4 |
| 20260901201405 | 73 | 84 | 6.0 | 12.0 | 0.00 | 0.00 | 0.00 | 75 | 1025.5 |
| 20260901200905 | 73 | 66 | 4.0 | 12.0 | 0.00 | 0.00 | 0.00 | 75 | 1025.5 |
| 20260901200405 | 73 | 69 | 5.0 | 12.0 | 0.00 | 0.00 | 0.00 | 76 | 1025.5 |
| 20260901195905 | 73 | 81 | 5.0 | 12.0 | 0.00 | 0.00 | 0.00 | 75 | 1025.5 |
| 20260901195405 | 73 | 79 | 7.0 | 12.0 | 0.00 | 0.00 | 0.00 | 75 | 1025.5 |
| 20260901194904 | 73 | 95 | 5.0 | 12.0 | 0.00 | 0.00 | 0.00 | 75 | 1025.6 |
| 20260901194405 | 73 | 89 | 5.0 | 12.0 | 0.00 | 0.00 | 0.00 | 75 | 1025.6 |
| 20260901193905 | 73 | 91 | 4.0 | 9.0 | 0.00 | 0.00 | 0.00 | 75 | 1025.5 |
| 20260901193404 | 73 | 83 | 4.0 | 10.0 | 0.00 | 0.00 | 0.00 | 76 | 1025.5 |
| 20260901191404 | 73 | 92 | 3.0 | 10.0 | 0.00 | 0.06 | 0.00 | 77 | 1025.5 |
| 20260901190905 | 73 | 83 | 5.0 | 12.0 | 0.00 | 0.10 | 0.00 | 77 | 1025.5 |
| 20260901190405 | 73 | 85 | 6.0 | 12.0 | 0.00 | 0.10 | 0.00 | 77 | 1025.5 |
| 20260901185905 | 73 | 69 | 5.0 | 14.0 | 0.00 | 0.11 | 0.00 | 77 | 1025.5 |
| 20260901185405 | 73 | 98 | 6.0 | 13.0 | 0.00 | 0.12 | 0.00 | 77 | 1025.5 |
| 20260901184904 | 73 | 84 | 6.0 | 12.0 | 0.00 | 0.15 | 0.00 | 77 | 1025.5 |
| 20260901184404 | 73 | 74 | 4.0 | 12.0 | 0.00 | 0.15 | 0.00 | 78 | 1025.5 |
| 20260901183904 | 73 | 49 | 7.0 | 13.0 | 0.00 | 0.15 | 0.00 | 78 | 1025.5 |
| 20260901183405 | 73 | 88 | 5.0 | 10.0 | 0.00 | 0.15 | 0.00 | 77 | 1025.5 |
| 20260901182905 | 72 | 74 | 6.0 | 15.0 | 0.00 | 0.17 | 0.00 | 77 | 1025.5 |
| 20260901182405 | 72 | 73 | 6.0 | 12.0 | 0.00 | 0.17 | 0.00 | 77 | 1025.4 |
| 20260901181904 | 72 | 102 | 4.0 | 12.0 | 0.00 | 0.17 | 0.00 | 77 | 1025.6 |
| 20260901181405 | 72 | 98 | 7.0 | 12.0 | 0.00 | 0.17 | 0.00 | 77 | 1025.5 |
| 20260901180905 | 72 | 97 | 5.0 | 10.0 | 0.00 | 0.17 | 0.00 | 77 | 1025.6 |
| 20260901180404 | 72 | 93 | 6.0 | 15.0 | 0.00 | 0.17 | 0.00 | 77 | 1025.5 |
| 20260901175904 | 73 | 108 | 5.0 | 13.0 | 0.00 | 0.17 | 0.00 | 77 | 1025.5 |
| 20260901175404 | 72 | 86 | 6.0 | 12.0 | 0.00 | 0.17 | 0.00 | 76 | 1025.5 |
| 20260901174904 | 73 | 88 | 6.0 | 14.0 | 0.00 | 0.17 | 0.00 | 77 | 1025.4 |
| 20260901174405 | 73 | 81 | 7.0 | 13.0 | 0.00 | 0.17 | 0.00 | 77 | 1025.5 |
| 20260901173904 | 73 | 73 | 7.0 | 12.0 | 0.00 | 0.17 | 0.00 | 77 | 1025.5 |
| 20260901173404 | 73 | 80 | 8.0 | 16.0 | 0.00 | 0.17 | 0.00 | 77 | 1025.4 |
| 20260901172904 | 73 | 80 | 5.0 | 12.0 | 0.00 | 0.17 | 0.00 | 78 | 1025.4 |
| 20260901172404 | 73 | 88 | 5.0 | 12.0 | 0.00 | 0.17 | 0.00 | 78 | 1025.3 |
| 20260901171904 | 73 | 78 | 5.0 | 12.0 | 0.00 | 0.17 | 0.00 | 77 | 1025.2 |
| 20260901171405 | 73 | 82 | 3.0 | 10.0 | 0.00 | 0.17 | 0.00 | 76 | 1025.2 |
| 20260901170904 | 72 | 116 | 3.0 | 12.0 | 0.00 | 0.17 | 0.00 | 76 | 1025.2 |
| 20260901170405 | 73 | 93 | 5.0 | 12.0 | 0.00 | 0.17 | 0.00 | 76 | 1025.1 |
| 20260901165904 | 73 | 81 | 6.0 | 12.0 | 0.00 | 0.17 | 0.00 | 76 | 1025.1 |
| 20260901165405 | 73 | 77 | 6.0 | 12.0 | 0.00 | 0.17 | 0.00 | 76 | 1025.0 |
| 20260901164905 | 73 | 105 | 5.0 | 12.0 | 0.00 | 0.17 | 0.00 | 77 | 1025.0 |
| 20260901164405 | 73 | 96 | 6.0 | 13.0 | 0.00 | 0.17 | 0.00 | 77 | 1024.9 |
| 20260901163904 | 73 | 87 | 6.0 | 14.0 | 0.00 | 0.17 | 0.00 | 77 | 1024.9 |
| 20260901163405 | 73 | 95 | 7.0 | 14.0 | 0.00 | 0.17 | 0.00 | 77 | 1024.9 |
| 20260901162904 | 73 | 83 | 6.0 | 12.0 | 0.00 | 0.17 | 0.00 | 76 | 1024.9 |
| 20260901162404 | 73 | 63 | 5.0 | 14.0 | 0.00 | 0.17 | 0.00 | 75 | 1024.8 |
| 20260901161904 | 73 | 88 | 6.0 | 12.0 | 0.00 | 0.17 | 0.00 | 76 | 1024.8 |
| 20260901161405 | 73 | 77 | 5.0 | 12.0 | 0.00 | 0.17 | 0.00 | 76 | 1024.7 |
| 20260901160404 | 73 | 85 | 7.0 | 13.0 | 0.00 | 0.17 | 0.00 | 76 | 1024.7 |
| 20260901155904 | 73 | 91 | 3.0 | 12.0 | 0.00 | 0.17 | 0.00 | 76 | 1024.7 |
| 20260901155404 | 73 | 103 | 7.0 | 12.0 | 0.00 | 0.17 | 0.00 | 76 | 1024.7 |
| 20260901154904 | 73 | 99 | 6.0 | 12.0 | 0.00 | 0.17 | 0.00 | 76 | 1024.7 |
| 20260901154404 | 73 | 83 | 4.0 | 9.0 | 0.00 | 0.17 | 0.00 | 76 | 1024.7 |
| 20260901153904 | 73 | 90 | 5.0 | 12.0 | 0.00 | 0.17 | 0.00 | 76 | 1024.6 |
| 20260901153404 | 73 | 104 | 6.0 | 12.0 | 0.00 | 0.17 | 0.00 | 76 | 1024.6 |
| 20260901152905 | 73 | 73 | 4.0 | 12.0 | 0.00 | 0.17 | 0.00 | 76 | 1024.6 |
| 20260901152404 | 73 | 81 | 5.0 | 13.0 | 0.00 | 0.17 | 0.00 | 76 | 1024.5 |
| 20260901151904 | 73 | 103 | 5.0 | 12.0 | 0.00 | 0.17 | 0.00 | 76 | 1024.5 |
| 20260901151405 | 73 | 73 | 6.0 | 13.0 | 0.00 | 0.17 | 0.00 | 76 | 1024.4 |
| 20260901150904 | 73 | 87 | 7.0 | 13.0 | 0.00 | 0.17 | 0.00 | 76 | 1024.4 |
| 20260901150405 | 73 | 92 | 7.0 | 14.0 | 0.00 | 0.17 | 0.00 | 76 | 1024.4 |
| 20260901145405 | 73 | 99 | 6.0 | 15.0 | 0.00 | 0.17 | 0.00 | 77 | 1024.2 |
| 20260901144904 | 73 | 84 | 6.0 | 14.0 | 0.00 | 0.17 | 0.00 | 77 | 1024.1 |
| 20260901144404 | 73 | 117 | 6.0 | 12.0 | 0.00 | 0.17 | 0.00 | 77 | 1024.1 |
| 20260901143904 | 73 | 102 | 6.0 | 12.0 | 0.00 | 0.17 | 0.00 | 77 | 1024.1 |
| 20260901143404 | 73 | 92 | 7.0 | 14.0 | 0.00 | 0.17 | 0.00 | 77 | 1024.1 |
| 20260901142904 | 73 | 109 | 6.0 | 14.0 | 0.00 | 0.17 | 0.00 | 77 | 1024.1 |
| 20260901142404 | 73 | 100 | 7.0 | 13.0 | 0.00 | 0.17 | 0.00 | 77 | 1024.1 |
| 20260901141405 | 73 | 108 | 6.0 | 15.0 | 0.00 | 0.17 | 0.00 | 77 | 1024.1 |
| 20260901140904 | 73 | 101 | 5.0 | 15.0 | 0.00 | 0.17 | 0.00 | 77 | 1024.0 |
| 20260901140405 | 73 | 94 | 7.0 | 12.0 | 0.00 | 0.17 | 0.00 | 77 | 1024.0 |
| 20260901135905 | 74 | 106 | 5.0 | 13.0 | 0.00 | 0.17 | 0.00 | 77 | 1023.9 |
| 20260901135404 | 74 | 82 | 9.0 | 16.0 | 0.00 | 0.17 | 0.00 | 77 | 1023.9 |
| 20260901134405 | 74 | 99 | 7.0 | 18.0 | 0.00 | 0.17 | 0.00 | 76 | 1023.8 |
| 20260901133904 | 74 | 93 | 7.0 | 18.0 | 0.00 | 0.17 | 0.00 | 76 | 1023.8 |
| 20260901133404 | 75 | 109 | 7.0 | 20.0 | 0.00 | 0.17 | 0.00 | 75 | 1023.8 |
| 20260901132404 | 75 | 106 | 7.0 | 13.0 | 0.00 | 0.17 | 0.00 | 75 | 1023.7 |
| 20260901131905 | 75 | 108 | 6.0 | 14.0 | 0.00 | 0.17 | 0.00 | 74 | 1023.7 |
| 20260901131405 | 75 | 73 | 6.0 | 14.0 | 0.00 | 0.17 | 0.00 | 75 | 1023.6 |
| 20260901130904 | 75 | 90 | 6.0 | 13.0 | 0.00 | 0.17 | 0.00 | 75 | 1023.6 |
| 20260901130405 | 75 | 92 | 7.0 | 17.0 | 0.00 | 0.17 | 0.00 | 75 | 1023.5 |
| 20260901125905 | 75 | 75 | 6.0 | 15.0 | 0.00 | 0.17 | 0.00 | 75 | 1023.6 |
| 20260901125405 | 75 | 76 | 7.0 | 12.0 | 0.00 | 0.17 | 0.00 | 75 | 1023.5 |
| 20260901124405 | 75 | 100 | 7.0 | 18.0 | 0.00 | 0.17 | 0.00 | 75 | 1023.4 |
| 20260901123404 | 75 | 93 | 7.0 | 15.0 | 0.00 | 0.17 | 0.00 | 76 | 1023.5 |
| 20260901122904 | 75 | 89 | 7.0 | 18.0 | 0.00 | 0.17 | 0.00 | 76 | 1023.4 |
| 20260901122405 | 75 | 75 | 9.0 | 16.0 | 0.00 | 0.17 | 0.00 | 76 | 1023.5 |
| 20260901121904 | 75 | 85 | 8.0 | 16.0 | 0.00 | 0.17 | 0.00 | 76 | 1023.4 |
| 20260901121405 | 76 | 73 | 9.0 | 16.0 | 0.00 | 0.17 | 0.00 | 76 | 1023.4 |
| 20260901120905 | 76 | 79 | 7.0 | 14.0 | 0.00 | 0.17 | 0.00 | 73 | 1023.5 |
| 20260901120405 | 76 | 81 | 6.0 | 18.0 | 0.00 | 0.17 | 0.00 | 71 | 1023.4 |
| 20260901115904 | 77 | 95 | 8.0 | 17.0 | 0.00 | 0.17 | 0.00 | 69 | 1023.4 |
| 20260901114904 | 77 | 68 | 9.0 | 16.0 | 0.00 | 0.17 | 0.00 | 72 | 1023.4 |
| 20260901113905 | 76 | 82 | 9.0 | 14.0 | 0.00 | 0.17 | 0.00 | 74 | 1023.4 |
| 20260901113404 | 77 | 72 | 10.0 | 17.0 | 0.00 | 0.17 | 0.00 | 73 | 1023.4 |